sat.trackr.live / text

‹ back to catalog

STARLINK-31017

NORAD 58515 · 2023-191H

PAYLOAD ACTIVE UNKNOWN

§ Identity

Operator
Country
US
Launch date
2023-12-07
Launch site
AFETR
Launch vehicle
Mass (kg)
RCS (m²)

Purposes: comms

External: N2YO · Heavens-Above · Gunter

§ Orbital elements

Epoch: 2026-05-24T18:19:52.587840Z

Period
94.27 min
Inclination
43.0025°
Eccentricity
0.0001430
Mean motion
15.27576014 rev/d
Perigee alt
482.1 km
Apogee alt
484.0 km
Semi-major
6,861.2 km
B*
2.3656e-5
RAAN
161.5409°
Arg perigee
287.1350°
Mean anomaly
72.9345°
Rev number
13,981

§ Raw data

STARLINK-310171 58515U 23191H   26144.76380310  .00000389  00000+0  23656-4 0  99902 58515  43.0025 161.5409 0001430 287.1350  72.9345 15.27576014139810

JSON: /api/v1/satellites/58515 · /tle

For live sub-satellite position, see the globe view (requires WebGL).

§ Visibility from observer

Set your observer location to see the next 7 days of passes ≥ 10°. The values pass through the URL so the page stays shareable.

No JS? Fill the form by hand. The geolocation button needs JavaScript.